| time (UTC) | temp C | wind direction | speed KPH | gust KPH | rain 1hr cm | rain 24hr cm | rain mn cm | humidity % | barometer mb |
| 20260901154952 | 15 | 180 | 6.4 | 9.7 | 0.00 | 0.00 | 0.00 | 90 | 1010.2 |
| 20260901154452 | 15 | 189 | 17.7 | 20.9 | 0.00 | 0.00 | 0.00 | 90 | 1010.1 |
| 20260901153947 | 15 | 189 | 6.4 | 9.7 | 0.00 | 0.00 | 0.00 | 91 | 1010.2 |
| 20260901153441 | 15 | 191 | 8.0 | 9.7 | 0.00 | 0.00 | 0.00 | 91 | 1010.3 |
| 20260901152940 | 15 | 212 | 3.2 | 3.2 | 0.00 | 0.00 | 0.00 | 91 | 1010.3 |
| 20260901152435 | 15 | 222 | 8.0 | 9.7 | 0.00 | 0.00 | 0.00 | 92 | 1010.1 |
| 20260901151935 | 15 | 228 | 4.8 | 4.8 | 0.00 | 0.00 | 0.00 | 92 | 1010.3 |
| 20260901151430 | 14 | 201 | 6.4 | 11.3 | 0.00 | 0.00 | 0.00 | 92 | 1010.3 |
| 20260901150929 | 14 | 190 | 8.0 | 9.7 | 0.00 | 0.00 | 0.00 | 93 | 1010.3 |
| 20260901150427 | 14 | 199 | 8.0 | 9.7 | 0.00 | 0.00 | 0.00 | 93 | 1010.3 |
| 20260901145924 | 14 | 214 | 9.7 | 11.3 | 0.00 | 0.00 | 0.00 | 94 | 1010.1 |
| 20260901145419 | 14 | 157 | 4.8 | 8.0 | 0.00 | 0.00 | 0.00 | 94 | 1010.1 |
| 20260901144914 | 14 | 183 | 6.4 | 8.0 | 0.00 | 0.00 | 0.00 | 94 | 1010.1 |
| 20260901144409 | 13 | 234 | 0.0 | 0.0 | 0.00 | 0.00 | 0.00 | 94 | 1010.0 |
| 20260901143905 | 13 | 220 | 0.0 | 0.0 | 0.00 | 0.00 | 0.00 | 94 | 1010.1 |
| 20260901143401 | 13 | 239 | 4.8 | 8.0 | 0.00 | 0.00 | 0.00 | 94 | 1010.0 |
| 20260901142857 | 13 | 262 | 1.6 | 1.6 | 0.00 | 0.00 | 0.00 | 95 | 1010.1 |
| 20260901142356 | 13 | 228 | 3.2 | 3.2 | 0.00 | 0.00 | 0.00 | 95 | 1010.1 |
| 20260901141851 | 13 | 261 | 4.8 | 4.8 | 0.00 | 0.00 | 0.00 | 95 | 1010.1 |
| 20260901141346 | 13 | 264 | 0.0 | 0.0 | 0.00 | 0.00 | 0.00 | 95 | 1009.9 |
| 20260901140845 | 13 | 249 | 11.3 | 14.5 | 0.00 | 0.00 | 0.00 | 95 | 1009.8 |
| 20260901140343 | 13 | 251 | 4.8 | 4.8 | 0.00 | 0.00 | 0.00 | 94 | 1009.8 |
| 20260901135838 | 13 | 270 | 1.6 | 4.8 | 0.00 | 0.00 | 0.00 | 94 | 1009.6 |
| 20260901135334 | 13 | 236 | 3.2 | 3.2 | 0.00 | 0.00 | 0.00 | 94 | 1010.0 |
| 20260901134829 | 13 | 247 | 3.2 | 4.8 | 0.00 | 0.00 | 0.00 | 94 | 1010.0 |
| 20260901134325 | 13 | 268 | 4.8 | 8.0 | 0.00 | 0.00 | 0.00 | 93 | 1009.9 |
| 20260901133819 | 13 | 281 | 16.1 | 20.9 | 0.00 | 0.00 | 0.00 | 92 | 1009.8 |
| 20260901133318 | 14 | 229 | 11.3 | 14.5 | 0.00 | 0.00 | 0.00 | 90 | 1009.8 |
| 20260901132817 | 14 | 267 | 4.8 | 8.0 | 0.00 | 0.00 | 0.00 | 88 | 1009.8 |
| 20260901132312 | 14 | 254 | 1.6 | 3.2 | 0.00 | 0.00 | 0.00 | 86 | 1009.6 |
| 20260901131806 | 14 | 268 | 1.6 | 1.6 | 0.00 | 0.00 | 0.00 | 86 | 1009.4 |
| 20260901131306 | 14 | 243 | 4.8 | 4.8 | 0.00 | 0.00 | 0.00 | 86 | 1009.4 |
| 20260901130800 | 15 | 280 | 0.0 | 0.0 | 0.00 | 0.00 | 0.00 | 86 | 1009.5 |
| 20260901130255 | 15 | 257 | 0.0 | 0.0 | 0.00 | 0.00 | 0.00 | 87 | 1009.4 |
| 20260901125752 | 14 | 268 | 0.0 | 0.0 | 0.00 | 0.00 | 0.00 | 88 | 1009.4 |
| 20260901125247 | 14 | 279 | 0.0 | 0.0 | 0.00 | 0.00 | 0.00 | 89 | 1009.4 |
| 20260901124742 | 14 | 308 | 0.0 | 0.0 | 0.00 | 0.00 | 0.00 | 89 | 1009.1 |
| 20260901124237 | 14 | 280 | 0.0 | 0.0 | 0.00 | 0.00 | 0.00 | 89 | 1009.2 |
| 20260901123736 | 14 | 291 | 0.0 | 0.0 | 0.00 | 0.00 | 0.00 | 90 | 1009.4 |
| 20260901123231 | 14 | 281 | 0.0 | 0.0 | 0.00 | 0.00 | 0.00 | 90 | 1009.3 |
| 20260901122730 | 13 | 279 | 0.0 | 0.0 | 0.00 | 0.00 | 0.00 | 90 | 1009.2 |
| 20260901122225 | 13 | 280 | 0.0 | 0.0 | 0.00 | 0.00 | 0.00 | 90 | 1009.3 |
| 20260901121719 | 13 | 279 | 0.0 | 0.0 | 0.00 | 0.00 | 0.00 | 90 | 1009.2 |
| 20260901121214 | 13 | 279 | 0.0 | 0.0 | 0.00 | 0.00 | 0.00 | 90 | 1009.0 |
| 20260901120714 | 13 | 289 | 0.0 | 0.0 | 0.00 | 0.00 | 0.00 | 90 | 1009.0 |
| 20260901120209 | 13 | 277 | 0.0 | 0.0 | 0.00 | 0.00 | 0.00 | 90 | 1009.0 |
| 20260901115704 | 13 | 281 | 0.0 | 0.0 | 0.00 | 0.00 | 0.00 | 90 | 1009.1 |
| 20260901115200 | 13 | 284 | 0.0 | 0.0 | 0.00 | 0.00 | 0.00 | 90 | 1009.0 |
| 20260901114657 | 13 | 280 | 0.0 | 0.0 | 0.00 | 0.00 | 0.00 | 91 | 1009.1 |
| 20260901114156 | 13 | 291 | 0.0 | 0.0 | 0.00 | 0.00 | 0.00 | 91 | 1008.9 |
| 20260901113655 | 13 | 285 | 0.0 | 0.0 | 0.00 | 0.00 | 0.00 | 91 | 1008.8 |
| 20260901113151 | 13 | 284 | 0.0 | 0.0 | 0.00 | 0.00 | 0.00 | 91 | 1009.0 |
| 20260901112644 | 13 | 292 | 0.0 | 0.0 | 0.00 | 0.00 | 0.00 | 90 | 1009.1 |
| 20260901112144 | 13 | 292 | 0.0 | 0.0 | 0.00 | 0.00 | 0.00 | 90 | 1009.0 |
| 20260901111644 | 13 | 292 | 0.0 | 0.0 | 0.00 | 0.00 | 0.00 | 90 | 1009.1 |
| 20260901111138 | 13 | 293 | 0.0 | 0.0 | 0.00 | 0.00 | 0.00 | 90 | 1009.0 |
| 20260901110633 | 13 | 279 | 0.0 | 0.0 | 0.00 | 0.00 | 0.00 | 89 | 1008.9 |
| 20260901110128 | 13 | 286 | 0.0 | 0.0 | 0.00 | 0.00 | 0.00 | 90 | 1009.0 |
| 20260901105625 | 13 | 290 | 0.0 | 0.0 | 0.00 | 0.00 | 0.00 | 90 | 1008.9 |
| 20260901105124 | 13 | 293 | 0.0 | 0.0 | 0.00 | 0.00 | 0.00 | 89 | 1008.8 |
| 20260901104620 | 13 | 290 | 0.0 | 0.0 | 0.00 | 0.00 | 0.00 | 89 | 1009.0 |
| 20260901104115 | 13 | 273 | 0.0 | 0.0 | 0.00 | 0.00 | 0.00 | 89 | 1009.0 |
| 20260901103609 | 13 | 286 | 0.0 | 0.0 | 0.00 | 0.00 | 0.00 | 89 | 1008.9 |
| 20260901103105 | 13 | 282 | 0.0 | 0.0 | 0.00 | 0.00 | 0.00 | 88 | 1009.0 |
| 20260901102604 | 13 | 283 | 0.0 | 0.0 | 0.00 | 0.00 | 0.00 | 88 | 1009.2 |
| 20260901102059 | 13 | 285 | 0.0 | 0.0 | 0.00 | 0.00 | 0.00 | 88 | 1009.1 |
| 20260901101555 | 13 | 279 | 0.0 | 0.0 | 0.00 | 0.00 | 0.00 | 87 | 1009.2 |
| 20260901101054 | 13 | 274 | 0.0 | 0.0 | 0.00 | 0.00 | 0.00 | 87 | 1008.9 |
| 20260901100548 | 13 | 283 | 0.0 | 0.0 | 0.00 | 0.00 | 0.00 | 88 | 1008.9 |
| 20260901100048 | 13 | 290 | 0.0 | 0.0 | 0.00 | 0.00 | 0.00 | 87 | 1008.7 |
| 20260901095546 | 13 | 293 | 0.0 | 0.0 | 0.00 | 0.00 | 0.00 | 87 | 1008.7 |
| 20260901095044 | 13 | 283 | 0.0 | 0.0 | 0.00 | 0.00 | 0.00 | 87 | 1008.6 |
| 20260901094540 | 14 | 279 | 0.0 | 0.0 | 0.00 | 0.00 | 0.00 | 86 | 1008.7 |
| 20260901094039 | 14 | 285 | 0.0 | 0.0 | 0.00 | 0.00 | 0.00 | 86 | 1008.5 |
| 20260901093534 | 14 | 288 | 0.0 | 0.0 | 0.00 | 0.00 | 0.00 | 86 | 1008.9 |
| 20260901093028 | 14 | 289 | 0.0 | 0.0 | 0.00 | 0.00 | 0.00 | 86 | 1008.6 |
| 20260901092525 | 14 | 289 | 0.0 | 0.0 | 0.00 | 0.00 | 0.00 | 86 | 1008.8 |
| 20260901092020 | 14 | 296 | 0.0 | 0.0 | 0.00 | 0.00 | 0.00 | 86 | 1008.5 |
| 20260901091515 | 14 | 294 | 0.0 | 0.0 | 0.00 | 0.00 | 0.00 | 86 | 1008.7 |
| 20260901091010 | 14 | 285 | 0.0 | 1.6 | 0.00 | 0.00 | 0.00 | 86 | 1008.8 |
| 20260901090509 | 14 | 285 | 0.0 | 1.6 | 0.00 | 0.00 | 0.00 | 86 | 1008.6 |
| 20260901090006 | 15 | 268 | 3.2 | 3.2 | 0.00 | 0.00 | 0.00 | 86 | 1008.7 |
| 20260901085501 | 15 | 285 | 0.0 | 0.0 | 0.00 | 0.00 | 0.00 | 85 | 1008.8 |
| 20260901084957 | 15 | 292 | 1.6 | 3.2 | 0.00 | 0.00 | 0.00 | 84 | 1008.7 |
| 20260901084452 | 15 | 292 | 3.2 | 3.2 | 0.00 | 0.00 | 0.00 | 83 | 1008.8 |
| 20260901083948 | 15 | 274 | 0.0 | 0.0 | 0.00 | 0.00 | 0.00 | 81 | 1008.6 |
| 20260901083443 | 15 | 294 | 0.0 | 0.0 | 0.00 | 0.00 | 0.00 | 77 | 1008.7 |
| 20260901082941 | 15 | 294 | 0.0 | 0.0 | 0.00 | 0.00 | 0.00 | 77 | 1008.6 |
| 20260901082436 | 15 | 294 | 0.0 | 0.0 | 0.00 | 0.00 | 0.00 | 77 | 1008.6 |
| 20260901081931 | 15 | 306 | 0.0 | 0.0 | 0.00 | 0.00 | 0.00 | 77 | 1008.7 |
| 20260901081426 | 15 | 308 | 0.0 | 1.6 | 0.00 | 0.00 | 0.00 | 77 | 1008.5 |
| 20260901080921 | 16 | 299 | 0.0 | 0.0 | 0.00 | 0.00 | 0.00 | 77 | 1008.6 |
| 20260901080415 | 16 | 330 | 0.0 | 0.0 | 0.00 | 0.00 | 0.00 | 77 | 1008.5 |
| 20260901075910 | 15 | 317 | 0.0 | 0.0 | 0.00 | 0.00 | 0.00 | 77 | 1008.5 |
| 20260901075405 | 16 | 308 | 0.0 | 0.0 | 0.00 | 0.00 | 0.00 | 77 | 1008.7 |
| 20260901074904 | 16 | 297 | 0.0 | 0.0 | 0.00 | 0.00 | 0.00 | 76 | 1008.3 |
| 20260901074359 | 16 | 295 | 0.0 | 0.0 | 0.00 | 0.00 | 0.00 | 75 | 1008.7 |
| 20260901073855 | 16 | 304 | 0.0 | 1.6 | 0.00 | 0.00 | 0.00 | 76 | 1008.4 |
| 20260901073350 | 16 | 313 | 0.0 | 0.0 | 0.00 | 0.00 | 0.00 | 75 | 1008.6 |
| 20260901072846 | 16 | 316 | 0.0 | 0.0 | 0.00 | 0.00 | 0.00 | 75 | 1008.6 |
| 20260901072346 | 16 | 317 | 0.0 | 0.0 | 0.00 | 0.00 | 0.00 | 75 | 1008.4 |
| 20260901071841 | 16 | 320 | 0.0 | 1.6 | 0.00 | 0.00 | 0.00 | 75 | 1008.4 |
| 20260901071339 | 16 | 294 | 0.0 | 0.0 | 0.00 | 0.00 | 0.00 | 76 | 1008.5 |
| 20260901070838 | 16 | 293 | 0.0 | 0.0 | 0.00 | 0.00 | 0.00 | 76 | 1008.7 |
| 20260901070335 | 16 | 297 | 0.0 | 0.0 | 0.00 | 0.00 | 0.00 | 77 | 1008.6 |
| 20260901065833 | 16 | 296 | 0.0 | 0.0 | 0.00 | 0.00 | 0.00 | 76 | 1008.5 |
| 20260901065329 | 16 | 305 | 0.0 | 0.0 | 0.00 | 0.00 | 0.00 | 76 | 1008.2 |
| 20260901064824 | 16 | 293 | 0.0 | 0.0 | 0.00 | 0.00 | 0.00 | 76 | 1008.5 |
| 20260901064321 | 17 | 295 | 0.0 | 0.0 | 0.00 | 0.00 | 0.00 | 75 | 1008.7 |
| 20260901063818 | 16 | 300 | 0.0 | 0.0 | 0.00 | 0.00 | 0.00 | 74 | 1008.5 |
| 20260901063314 | 17 | 293 | 0.0 | 0.0 | 0.00 | 0.00 | 0.00 | 74 | 1008.4 |
| 20260901062810 | 16 | 292 | 0.0 | 0.0 | 0.00 | 0.00 | 0.00 | 75 | 1008.5 |
| 20260901062309 | 17 | 309 | 0.0 | 0.0 | 0.00 | 0.00 | 0.00 | 75 | 1008.5 |
| 20260901061801 | 17 | 307 | 0.0 | 0.0 | 0.00 | 0.00 | 0.00 | 75 | 1008.7 |
| 20260901061301 | 17 | 308 | 0.0 | 0.0 | 0.00 | 0.00 | 0.00 | 74 | 1008.6 |
| 20260901060756 | 17 | 308 | 0.0 | 0.0 | 0.00 | 0.00 | 0.00 | 74 | 1008.5 |
| 20260901060252 | 17 | 308 | 0.0 | 0.0 | 0.00 | 0.00 | 0.00 | 74 | 1008.6 |
| 20260901055746 | 17 | 308 | 0.0 | 0.0 | 0.00 | 0.00 | 0.00 | 74 | 1008.4 |
| 20260901055243 | 17 | 322 | 0.0 | 0.0 | 0.00 | 0.00 | 0.00 | 74 | 1008.6 |
| 20260901054739 | 17 | 319 | 0.0 | 0.0 | 0.00 | 0.00 | 0.00 | 74 | 1008.5 |
| 20260901054236 | 17 | 298 | 0.0 | 0.0 | 0.00 | 0.00 | 0.00 | 74 | 1008.6 |
| 20260901053731 | 17 | 289 | 0.0 | 0.0 | 0.00 | 0.00 | 0.00 | 74 | 1008.7 |
| 20260901053226 | 17 | 312 | 0.0 | 0.0 | 0.00 | 0.00 | 0.00 | 73 | 1008.9 |
| 20260901052722 | 17 | 301 | 0.0 | 0.0 | 0.00 | 0.00 | 0.00 | 73 | 1008.9 |
| 20260901052218 | 17 | 343 | 0.0 | 0.0 | 0.00 | 0.00 | 0.00 | 74 | 1008.7 |
| 20260901051716 | 17 | 324 | 0.0 | 0.0 | 0.00 | 0.00 | 0.00 | 74 | 1008.6 |
| 20260901051211 | 17 | 296 | 0.0 | 0.0 | 0.00 | 0.00 | 0.00 | 73 | 1008.7 |
| 20260901050706 | 18 | 283 | 0.0 | 0.0 | 0.00 | 0.00 | 0.00 | 72 | 1008.7 |
| 20260901050201 | 18 | 270 | 0.0 | 0.0 | 0.00 | 0.00 | 0.00 | 73 | 1008.7 |
| 20260901045656 | 17 | 284 | 0.0 | 0.0 | 0.00 | 0.00 | 0.00 | 73 | 1008.9 |
| 20260901045151 | 17 | 302 | 0.0 | 0.0 | 0.00 | 0.00 | 0.00 | 73 | 1008.9 |
| 20260901044646 | 17 | 304 | 0.0 | 0.0 | 0.00 | 0.00 | 0.00 | 72 | 1008.7 |
| 20260901044143 | 17 | 300 | 0.0 | 0.0 | 0.00 | 0.00 | 0.00 | 72 | 1008.5 |
| 20260901043638 | 18 | 295 | 0.0 | 0.0 | 0.00 | 0.00 | 0.00 | 71 | 1008.7 |
| 20260901043134 | 18 | 293 | 0.0 | 0.0 | 0.00 | 0.00 | 0.00 | 71 | 1008.8 |
| 20260901042632 | 18 | 286 | 0.0 | 0.0 | 0.00 | 0.00 | 0.00 | 71 | 1008.6 |
| 20260901042128 | 18 | 289 | 0.0 | 0.0 | 0.00 | 0.00 | 0.00 | 71 | 1008.8 |
| 20260901041624 | 18 | 312 | 0.0 | 0.0 | 0.00 | 0.00 | 0.00 | 70 | 1008.6 |
| 20260901041119 | 18 | 321 | 0.0 | 0.0 | 0.00 | 0.00 | 0.00 | 70 | 1008.6 |
| 20260901040618 | 18 | 317 | 0.0 | 0.0 | 0.00 | 0.00 | 0.00 | 70 | 1008.5 |
| 20260901040112 | 18 | 323 | 1.6 | 3.2 | 0.00 | 0.00 | 0.00 | 69 | 1008.5 |
| 20260901035610 | 18 | 320 | 0.0 | 0.0 | 0.00 | 0.00 | 0.00 | 69 | 1008.5 |
| 20260901035109 | 18 | 308 | 0.0 | 0.0 | 0.00 | 0.00 | 0.00 | 69 | 1008.3 |
| 20260901034609 | 18 | 319 | 0.0 | 1.6 | 0.00 | 0.00 | 0.00 | 68 | 1008.5 |
| 20260901034103 | 18 | 15 | 4.8 | 8.0 | 0.00 | 0.00 | 0.00 | 68 | 1008.2 |
| 20260901033602 | 18 | 312 | 0.0 | 0.0 | 0.00 | 0.00 | 0.00 | 69 | 1008.5 |
| 20260901033057 | 18 | 323 | 4.8 | 9.7 | 0.00 | 0.00 | 0.00 | 69 | 1008.3 |
| 20260901032556 | 18 | 342 | 8.0 | 11.3 | 0.00 | 0.00 | 0.00 | 69 | 1008.3 |
| 20260901032051 | 18 | 346 | 6.4 | 8.0 | 0.00 | 0.00 | 0.00 | 69 | 1008.2 |
| 20260901031546 | 18 | 313 | 3.2 | 4.8 | 0.00 | 0.00 | 0.00 | 70 | 1008.3 |
| 20260901031043 | 18 | 306 | 1.6 | 3.2 | 0.00 | 0.00 | 0.00 | 70 | 1008.3 |
| 20260901030542 | 18 | 343 | 4.8 | 4.8 | 0.00 | 0.00 | 0.00 | 70 | 1008.2 |
| 20260901030037 | 18 | 302 | 1.6 | 1.6 | 0.00 | 0.00 | 0.00 | 70 | 1008.1 |
| 20260901025536 | 18 | 0 | 9.7 | 12.9 | 0.00 | 0.00 | 0.00 | 69 | 1008.1 |
| 20260901025031 | 18 | 315 | 4.8 | 8.0 | 0.00 | 0.00 | 0.00 | 69 | 1008.1 |
| 20260901024526 | 18 | 311 | 3.2 | 3.2 | 0.00 | 0.00 | 0.00 | 69 | 1008.3 |
| 20260901024025 | 19 | 320 | 8.0 | 9.7 | 0.00 | 0.00 | 0.00 | 69 | 1008.3 |
| 20260901023519 | 19 | 357 | 3.2 | 4.8 | 0.00 | 0.00 | 0.00 | 69 | 1008.0 |
| 20260901023014 | 19 | 313 | 6.4 | 9.7 | 0.00 | 0.00 | 0.00 | 68 | 1008.1 |
| 20260901022509 | 19 | 261 | 8.0 | 12.9 | 0.00 | 0.00 | 0.00 | 68 | 1008.2 |
| 20260901022004 | 20 | 289 | 4.8 | 8.0 | 0.00 | 0.00 | 0.00 | 68 | 1008.2 |
| 20260901021500 | 20 | 322 | 3.2 | 3.2 | 0.00 | 0.00 | 0.00 | 67 | 1008.3 |
| 20260901020955 | 20 | 314 | 4.8 | 8.0 | 0.00 | 0.00 | 0.00 | 67 | 1008.3 |
| 20260901020450 | 20 | 329 | 4.8 | 8.0 | 0.00 | 0.00 | 0.00 | 67 | 1008.3 |
| 20260901015949 | 20 | 347 | 6.4 | 8.0 | 0.00 | 0.00 | 0.00 | 67 | 1008.2 |
| 20260901015446 | 20 | 334 | 11.3 | 14.5 | 0.00 | 0.00 | 0.00 | 66 | 1008.4 |
| 20260901014945 | 20 | 0 | 8.0 | 11.3 | 0.00 | 0.00 | 0.00 | 66 | 1008.3 |
| 20260901014441 | 20 | 321 | 4.8 | 4.8 | 0.00 | 0.00 | 0.00 | 66 | 1008.3 |
| 20260901013936 | 20 | 324 | 6.4 | 11.3 | 0.00 | 0.00 | 0.00 | 66 | 1008.3 |
| 20260901013432 | 20 | 2 | 11.3 | 14.5 | 0.00 | 0.00 | 0.00 | 66 | 1008.3 |
| 20260901012928 | 20 | 10 | 6.4 | 9.7 | 0.00 | 0.00 | 0.00 | 66 | 1008.3 |
| 20260901012422 | 20 | 283 | 6.4 | 11.3 | 0.00 | 0.00 | 0.00 | 66 | 1008.2 |
| 20260901011918 | 20 | 335 | 6.4 | 9.7 | 0.00 | 0.00 | 0.00 | 67 | 1008.4 |
| 20260901011414 | 20 | 338 | 6.4 | 11.3 | 0.00 | 0.00 | 0.00 | 67 | 1008.5 |
| 20260901010912 | 20 | 0 | 4.8 | 8.0 | 0.00 | 0.00 | 0.00 | 66 | 1008.3 |
| 20260901010407 | 20 | 308 | 4.8 | 8.0 | 0.00 | 0.00 | 0.00 | 66 | 1008.5 |
| 20260901005906 | 20 | 319 | 6.4 | 11.3 | 0.00 | 0.00 | 0.00 | 66 | 1008.3 |
| 20260901005401 | 20 | 274 | 0.0 | 1.6 | 0.00 | 0.00 | 0.00 | 66 | 1008.4 |
| 20260901004856 | 20 | 310 | 4.8 | 9.7 | 0.00 | 0.00 | 0.00 | 66 | 1008.4 |
| 20260901004355 | 20 | 344 | 8.0 | 12.9 | 0.00 | 0.00 | 0.00 | 65 | 1008.3 |
| 20260901003850 | 21 | 336 | 9.7 | 12.9 | 0.00 | 0.00 | 0.00 | 64 | 1008.4 |
| 20260901003345 | 21 | 325 | 9.7 | 16.1 | 0.00 | 0.00 | 0.00 | 64 | 1008.3 |
| 20260901002843 | 20 | 340 | 6.4 | 8.0 | 0.00 | 0.00 | 0.00 | 64 | 1008.3 |
| 20260901002343 | 21 | 307 | 4.8 | 8.0 | 0.00 | 0.00 | 0.00 | 63 | 1008.5 |
| 20260901001838 | 21 | 331 | 8.0 | 12.9 | 0.00 | 0.00 | 0.00 | 64 | 1008.5 |
| 20260901001333 | 21 | 312 | 12.9 | 22.5 | 0.00 | 0.00 | 0.00 | 62 | 1008.6 |
| 20260901000828 | 22 | 32 | 9.7 | 14.5 | 0.00 | 0.00 | 0.00 | 59 | 1008.7 |
| 20260901000324 | 21 | 301 | 4.8 | 4.8 | 0.00 | 0.00 | 0.00 | 61 | 1008.7 |
| 20260831235822 | 21 | 341 | 6.4 | 9.7 | 0.00 | 0.00 | 0.00 | 62 | 1008.7 |
| 20260831235318 | 21 | 331 | 11.3 | 14.5 | 0.00 | 0.00 | 0.00 | 60 | 1008.8 |
| 20260831234813 | 21 | 346 | 3.2 | 8.0 | 0.00 | 0.00 | 0.00 | 60 | 1008.8 |
| 20260831234313 | 21 | 352 | 3.2 | 11.3 | 0.00 | 0.00 | 0.00 | 62 | 1008.8 |
| 20260831233808 | 21 | 301 | 3.2 | 4.8 | 0.00 | 0.00 | 0.00 | 61 | 1008.9 |
| 20260831233304 | 22 | 55 | 11.3 | 20.9 | 0.00 | 0.00 | 0.00 | 60 | 1009.2 |
| 20260831232758 | 22 | 339 | 0.0 | 4.8 | 0.00 | 0.00 | 0.00 | 58 | 1009.0 |
| 20260831232255 | 22 | 2 | 4.8 | 11.3 | 0.00 | 0.00 | 0.00 | 60 | 1009.0 |
| 20260831231750 | 22 | 279 | 12.9 | 17.7 | 0.00 | 0.00 | 0.00 | 61 | 1009.1 |
| 20260831231247 | 21 | 350 | 4.8 | 4.8 | 0.00 | 0.00 | 0.00 | 61 | 1009.2 |
| 20260831230742 | 21 | 357 | 11.3 | 14.5 | 0.00 | 0.00 | 0.00 | 63 | 1009.2 |
| 20260831230237 | 21 | 332 | 9.7 | 14.5 | 0.00 | 0.00 | 0.00 | 63 | 1009.1 |
| 20260831225736 | 21 | 355 | 1.6 | 3.2 | 0.00 | 0.00 | 0.00 | 62 | 1009.0 |
| 20260831225232 | 21 | 270 | 1.6 | 4.8 | 0.00 | 0.00 | 0.00 | 60 | 1009.2 |
| 20260831224726 | 22 | 338 | 6.4 | 11.3 | 0.00 | 0.00 | 0.00 | 60 | 1009.4 |
| 20260831224222 | 23 | 339 | 1.6 | 11.3 | 0.00 | 0.00 | 0.00 | 56 | 1009.3 |
| 20260831223717 | 23 | 5 | 0.0 | 0.0 | 0.00 | 0.00 | 0.00 | 58 | 1009.6 |
| 20260831223214 | 22 | 24 | 8.0 | 12.9 | 0.00 | 0.00 | 0.00 | 59 | 1009.6 |
| 20260831222709 | 22 | 9 | 11.3 | 14.5 | 0.00 | 0.00 | 0.00 | 60 | 1009.5 |
| 20260831222205 | 22 | 277 | 1.6 | 1.6 | 0.00 | 0.00 | 0.00 | 62 | 1009.7 |
| 20260831221700 | 22 | 14 | 14.5 | 20.9 | 0.00 | 0.00 | 0.00 | 61 | 1009.4 |
| 20260831221155 | 21 | 259 | 4.8 | 8.0 | 0.00 | 0.00 | 0.00 | 61 | 1009.7 |
| 20260831220650 | 21 | 17 | 4.8 | 8.0 | 0.00 | 0.00 | 0.00 | 63 | 1009.8 |
| 20260831220145 | 22 | 341 | 4.8 | 12.9 | 0.00 | 0.00 | 0.00 | 60 | 1009.5 |
| 20260831215640 | 23 | 312 | 0.0 | 0.0 | 0.00 | 0.00 | 0.00 | 60 | 1009.8 |
| 20260831215136 | 22 | 314 | 9.7 | 12.9 | 0.00 | 0.00 | 0.00 | 61 | 1010.0 |
| 20260831214633 | 21 | 351 | 9.7 | 17.7 | 0.00 | 0.00 | 0.00 | 61 | 1009.9 |
| 20260831214129 | 22 | 351 | 6.4 | 11.3 | 0.00 | 0.00 | 0.00 | 61 | 1010.1 |
| 20260831213626 | 22 | 292 | 4.8 | 8.0 | 0.00 | 0.00 | 0.00 | 60 | 1010.1 |
| 20260831213121 | 21 | 8 | 4.8 | 8.0 | 0.00 | 0.00 | 0.00 | 62 | 1010.3 |
| 20260831212617 | 21 | 290 | 11.3 | 14.5 | 0.00 | 0.00 | 0.00 | 64 | 1010.4 |
| 20260831212113 | 21 | 343 | 8.0 | 16.1 | 0.00 | 0.00 | 0.00 | 63 | 1010.1 |
| 20260831211612 | 21 | 332 | 11.3 | 14.5 | 0.00 | 0.00 | 0.00 | 62 | 1010.5 |
| 20260831211112 | 21 | 342 | 12.9 | 16.1 | 0.00 | 0.00 | 0.00 | 62 | 1010.5 |
| 20260831210607 | 21 | 291 | 3.2 | 8.0 | 0.00 | 0.00 | 0.00 | 62 | 1010.4 |
| 20260831210103 | 22 | 353 | 11.3 | 17.7 | 0.00 | 0.00 | 0.00 | 60 | 1010.7 |
| 20260831205602 | 22 | 331 | 8.0 | 11.3 | 0.00 | 0.00 | 0.00 | 61 | 1010.6 |
| 20260831205058 | 22 | 305 | 1.6 | 3.2 | 0.00 | 0.00 | 0.00 | 61 | 1010.6 |
| 20260831204553 | 21 | 299 | 6.4 | 9.7 | 0.00 | 0.00 | 0.00 | 62 | 1010.8 |
| 20260831204051 | 22 | 281 | 9.7 | 14.5 | 0.00 | 0.00 | 0.00 | 60 | 1010.8 |
| 20260831203546 | 21 | 307 | 1.6 | 1.6 | 0.00 | 0.00 | 0.00 | 64 | 1011.0 |
| 20260831203045 | 22 | 327 | 8.0 | 11.3 | 0.00 | 0.00 | 0.00 | 61 | 1010.8 |
| 20260831202544 | 21 | 277 | 3.2 | 9.7 | 0.00 | 0.00 | 0.00 | 61 | 1010.9 |
| 20260831202039 | 21 | 308 | 1.6 | 3.2 | 0.00 | 0.00 | 0.00 | 62 | 1011.1 |
| 20260831201538 | 21 | 334 | 6.4 | 9.7 | 0.00 | 0.00 | 0.00 | 64 | 1011.1 |
| 20260831201033 | 21 | 259 | 1.6 | 3.2 | 0.00 | 0.00 | 0.00 | 64 | 1011.3 |
| 20260831200529 | 21 | 266 | 8.0 | 11.3 | 0.00 | 0.00 | 0.00 | 63 | 1011.4 |
| 20260831200024 | 20 | 307 | 8.0 | 9.7 | 0.00 | 0.00 | 0.00 | 63 | 1011.3 |
| 20260831195519 | 21 | 333 | 8.0 | 14.5 | 0.00 | 0.00 | 0.00 | 62 | 1011.5 |
| 20260831195019 | 20 | 317 | 8.0 | 11.3 | 0.00 | 0.00 | 0.00 | 64 | 1011.5 |
| 20260831194509 | 21 | 314 | 3.2 | 3.2 | 0.00 | 0.00 | 0.00 | 63 | 1011.5 |
| 20260831194008 | 21 | 8 | 3.2 | 3.2 | 0.00 | 0.00 | 0.00 | 64 | 1011.8 |
| 20260831193504 | 20 | 317 | 3.2 | 3.2 | 0.00 | 0.00 | 0.00 | 68 | 1011.5 |
| 20260831192959 | 20 | 313 | 11.3 | 16.1 | 0.00 | 0.00 | 0.00 | 68 | 1011.6 |
| 20260831192454 | 20 | 316 | 11.3 | 14.5 | 0.00 | 0.00 | 0.00 | 66 | 1011.8 |
| 20260831191948 | 19 | 339 | 11.3 | 14.5 | 0.00 | 0.00 | 0.00 | 68 | 1012.0 |
| 20260831191445 | 18 | 340 | 8.0 | 12.9 | 0.00 | 0.00 | 0.00 | 70 | 1011.8 |
| 20260831190941 | 20 | 307 | 6.4 | 11.3 | 0.00 | 0.00 | 0.00 | 66 | 1012.0 |
| 20260831190436 | 20 | 316 | 3.2 | 11.3 | 0.00 | 0.00 | 0.00 | 69 | 1012.2 |
| 20260831185935 | 20 | 319 | 4.8 | 8.0 | 0.00 | 0.00 | 0.00 | 66 | 1012.2 |
| 20260831185431 | 20 | 314 | 8.0 | 11.3 | 0.00 | 0.00 | 0.00 | 68 | 1012.1 |
| 20260831184930 | 20 | 318 | 6.4 | 11.3 | 0.00 | 0.00 | 0.00 | 67 | 1012.4 |
| 20260831184425 | 20 | 318 | 9.7 | 16.1 | 0.00 | 0.00 | 0.00 | 65 | 1012.2 |
| 20260831183920 | 20 | 306 | 4.8 | 11.3 | 0.00 | 0.00 | 0.00 | 67 | 1012.4 |
| 20260831183420 | 20 | 297 | 11.3 | 12.9 | 0.00 | 0.00 | 0.00 | 68 | 1012.5 |
| 20260831182914 | 20 | 317 | 1.6 | 3.2 | 0.00 | 0.00 | 0.00 | 67 | 1012.6 |
| 20260831182409 | 20 | 282 | 4.8 | 8.0 | 0.00 | 0.00 | 0.00 | 69 | 1012.6 |
| 20260831181904 | 20 | 262 | 0.0 | 0.0 | 0.00 | 0.00 | 0.00 | 70 | 1012.6 |
| 20260831181359 | 19 | 335 | 8.0 | 11.3 | 0.00 | 0.00 | 0.00 | 71 | 1012.6 |
| 20260831180854 | 19 | 0 | 8.0 | 9.7 | 0.00 | 0.00 | 0.00 | 71 | 1012.7 |
| 20260831180348 | 18 | 283 | 4.8 | 8.0 | 0.00 | 0.00 | 0.00 | 74 | 1012.6 |
| 20260831175848 | 18 | 334 | 3.2 | 4.8 | 0.00 | 0.00 | 0.00 | 75 | 1012.8 |
| 20260831175344 | 18 | 325 | 6.4 | 8.0 | 0.00 | 0.00 | 0.00 | 75 | 1012.9 |
| 20260831174840 | 18 | 333 | 8.0 | 11.3 | 0.00 | 0.00 | 0.00 | 74 | 1013.0 |
| 20260831174336 | 18 | 308 | 1.6 | 1.6 | 0.00 | 0.00 | 0.00 | 77 | 1012.9 |
| 20260831173834 | 18 | 337 | 9.7 | 12.9 | 0.00 | 0.00 | 0.00 | 76 | 1012.9 |
| 20260831173328 | 17 | 314 | 3.2 | 4.8 | 0.00 | 0.00 | 0.00 | 78 | 1013.1 |
| 20260831172824 | 18 | 274 | 1.6 | 3.2 | 0.00 | 0.00 | 0.00 | 76 | 1013.1 |
| 20260831172319 | 18 | 308 | 4.8 | 4.8 | 0.00 | 0.00 | 0.00 | 75 | 1013.1 |
| 20260831171819 | 17 | 325 | 1.6 | 3.2 | 0.00 | 0.00 | 0.00 | 77 | 1013.2 |
| 20260831171315 | 17 | 300 | 0.0 | 1.6 | 0.00 | 0.00 | 0.00 | 77 | 1012.9 |
| 20260831170812 | 18 | 340 | 4.8 | 8.0 | 0.00 | 0.00 | 0.00 | 76 | 1013.2 |
| 20260831170308 | 18 | 316 | 6.4 | 9.7 | 0.00 | 0.00 | 0.00 | 76 | 1013.1 |
| 20260831165804 | 18 | 289 | 4.8 | 8.0 | 0.00 | 0.00 | 0.00 | 75 | 1013.3 |
| 20260831165300 | 18 | 70 | 1.6 | 3.2 | 0.00 | 0.00 | 0.00 | 73 | 1013.2 |
| 20260831164756 | 18 | 340 | 4.8 | 4.8 | 0.00 | 0.00 | 0.00 | 76 | 1013.2 |
| 20260831164252 | 17 | 328 | 3.2 | 8.0 | 0.00 | 0.00 | 0.00 | 78 | 1013.3 |
| 20260831163747 | 17 | 356 | 6.4 | 8.0 | 0.00 | 0.00 | 0.00 | 78 | 1013.1 |
| 20260831163243 | 18 | 290 | 4.8 | 8.0 | 0.00 | 0.00 | 0.00 | 76 | 1013.3 |
| 20260831162741 | 18 | 305 | 1.6 | 1.6 | 0.00 | 0.00 | 0.00 | 76 | 1013.5 |
| 20260831162236 | 18 | 321 | 0.0 | 0.0 | 0.00 | 0.00 | 0.00 | 75 | 1013.5 |
| 20260831161730 | 17 | 17 | 6.4 | 8.0 | 0.00 | 0.00 | 0.00 | 75 | 1013.4 |
| 20260831161227 | 17 | 353 | 8.0 | 9.7 | 0.00 | 0.00 | 0.00 | 74 | 1013.7 |
| 20260831160726 | 18 | 21 | 1.6 | 1.6 | 0.00 | 0.00 | 0.00 | 75 | 1013.7 |
| 20260831160221 | 17 | 76 | 3.2 | 4.8 | 0.00 | 0.00 | 0.00 | 76 | 1013.7 |
| 20260831155721 | 17 | 11 | 1.6 | 1.6 | 0.00 | 0.00 | 0.00 | 77 | 1013.5 |
| 20260831155217 | 17 | 318 | 1.6 | 3.2 | 0.00 | 0.00 | 0.00 | 77 | 1013.9 |